Helicity
345 312 240 214 138 110 83 73 58 50 57 71 64 61 51 47 52 67 61 56 70 65 86 105 95 131 131 128 128 122 105 95 95 95 84 38 38 38 27 25 77 133 102
392 341 271 246 149 111 105 89 76 68 77 66 55 49 40 41 56 69 64 64 78 62 71 90 95 154 142 137 147 133 128 117 129 79 77 67 32 58 -19 19 56 86 117
414 372 266 253 202 124 106 97 88 73 46 34 29 19 18 31 43 56 63 71 91 79 78 91 83 127 149 160 163 153 155 148 152 146 87 84 57 51 3 -5 35 74 86
408 381 298 287 244 158 119 108 88 60 42 35 20 22 32 36 57 58 69 86 86 80 79 90 102 132 156 164 169 154 160 152 153 134 107 99 83 57 -14 -36 36 52 54
434 385 320 246 245 163 106 97 68 43 49 45 44 44 46 61 77 80 99 113 97 78 75 89 90 99 103 140 167 162 168 163 148 126 99 112 106 35 -1 -7 21 73 93
479 379 277 226 195 140 83 71 62 41 55 52 52 54 63 82 78 120 150 137 120 105 102 103 109 75 62 82 110 125 161 171 140 155 126 128 45 -13 -5 18 32 51 34
536 426 262 199 175 109 82 80 58 57 98 75 68 93 89 97 116 117 148 141 132 99 99 106 107 82 74 83 80 71 80 79 100 148 146 128 53 -36 -24 7 13 70 47
469 290 234 205 110 109 100 76 51 104 130 120 86 75 131 126 133 124 123 139 104 90 114 103 69 36 57 79 87 86 88 105 101 132 141 115 1 -155 -36 -3 19 83 72
441 202 250 155 146 143 107 98 99 151 171 205 163 77 35 87 104 135 149 167 100 83 104 99 75 67 67 87 93 74 74 90 110 110 123 119 82 47 -18 97 53 46 29
415 234 201 127 116 151 153 147 139 194 234 270 180 137 108 123 125 160 164 164 110 111 106 101 75 72 100 118 93 72 59 79 98 94 97 103 111 112 78 221 97 52 129
275 163 80 112 158 168 188 185 195 225 329 310 224 105 168 122 107 89 140 145 118 154 117 53 29 72 114 94 71 52 50 75 104 109 103 88 160 68 196 352 148 44 106
266 142 73 33 -100 -121 220 215 237 329 331 186 114 119 130 162 143 152 138 87 113 109 51 49 41 81 78 70 40 4 28 60 103 93 102 91 110 79 221 478 248 55 95
387 286 267 116 94 117 72 227 321 297 220 131 112 126 152 181 200 205 182 152 111 108 74 58 68 104 108 66 56 51 36 75 81 84 63 101 173 64 199 498 295 159 93
392 333 225 371 242 -11 162 248 260 187 169 140 133 125 185 190 174 184 148 130 121 113 83 72 100 148 115 64 46 43 54 76 74 68 94 108 136 43 189 498 332 286 72
57 31 56 11 52 141 244 208 197 195 149 119 139 164 197 167 148 138 121 128 134 124 119 120 183 144 89 44 43 52 51 72 79 68 84 12 -46 -8 101 324 449 407 266
238 108 53 111 188 197 236 247 325 252 206 201 182 180 194 173 146 118 92 118 112 108 144 145 142 108 62 41 46 57 58 60 87 84 90 84 -44 -67 -7 117 292 426 457
197 110 102 186 241 244 221 232 241 227 282 269 245 213 167 143 134 131 129 139 144 152 135 122 103 95 70 69 72 63 64 74 85 85 82 83 40 -33 -45 6 151 343 387
94 120 124 136 180 205 223 229 158 162 193 195 169 148 130 122 129 131 117 148 126 113 106 104 116 103 85 81 70 53 58 60 63 41 48 70 74 -3 -20 -4 13 37 205
72 71 90 134 179 203 190 170 173 175 151 154 138 98 66 73 108 116 113 104 103 84 96 128 111 98 78 68 57 35 29 30 32 36 27 32 39 53 4 3 -18 30 -6
289 61 118 160 202 203 203 219 220 184 191 157 113 70 87 129 115 95 90 84 77 75 81 109 95 76 61 57 38 28 32 50 60 67 64 51 50 36 30 33 19 31 21
96 143 175 168 178 183 191 186 159 156 155 115 98 77 69 87 80 70 66 70 82 77 77 88 100 89 70 40 30 32 43 48 57 74 85 76 60 51 49 33 40 42 22
176 180 161 158 178 173 149 132 159 170 151 135 111 42 60 65 48 56 52 65 61 68 73 84 83 70 45 30 33 35 42 43 51 68 76 74 68 55 52 59 66 72 67
179 172 169 163 145 138 134 118 150 150 171 136 139 101 73 56 32 23 55 87 80 88 74 74 63 59 36 30 28 29 36 36 34 23 34 53 55 50 35 39 55 68 82
174 159 131 104 116 127 120 120 118 135 143 150 157 134 127 89 42 31 59 93 95 82 74 58 30 28 29 25 16 17 20 24 29 15 8 28 40 48 44 26 35 55 62
137 132 117 96 84 77 85 103 120 94 100 144 147 168 139 97 65 36 33 53 80 83 59 50 29 17 23 26 25 22 20 29 36 28 23 30 44 55 53 42 38 46 62
165 146 136 125 93 81 80 77 65 70 74 115 162 163 136 113 89 77 63 72 70 72 58 49 38 26 26 21 22 26 28 39 49 51 23 36 46 61 60 69 71 52 62
Wind_Speed
23 18 11 5 1 8 13 19 24 26 26 29 30 31 31 32 34 34 33 29 29 33 31 27 29 28 34 38 40 42 47 51 63 70 69 85 93 93 91 89 87 91 90
22 19 14 8 5 2 8 13 19 20 26 30 31 32 32 32 32 32 31 30 32 32 31 32 32 33 34 39 39 42 44 48 58 77 80 84 92 95 92 92 88 88 90
22 19 15 12 10 6 5 9 14 19 23 27 29 31 31 31 31 30 28 31 31 31 32 34 36 33 36 39 39 43 44 48 53 64 84 84 91 95 95 90 89 89 91
24 24 21 14 11 7 6 7 11 15 19 23 26 28 30 32 31 29 30 32 28 30 34 36 39 36 36 40 39 44 48 52 60 68 81 89 92 94 95 97 96 87 90
29 26 23 17 12 8 6 7 10 13 17 22 25 27 30 35 34 33 32 33 33 39 40 42 43 41 35 38 43 48 48 53 62 72 83 91 96 102 100 96 96 95 94
30 29 23 18 15 12 9 7 10 14 17 23 26 29 30 34 37 32 32 35 34 40 45 46 45 42 41 35 36 35 36 53 61 70 79 87 101 100 100 98 97 95 99
31 27 25 22 19 16 12 9 12 15 19 20 24 27 30 35 36 32 32 33 34 41 49 55 49 47 49 43 48 43 46 50 50 62 69 82 98 103 105 105 102 97 100
28 25 22 22 20 17 13 13 17 22 18 19 23 29 21 33 37 34 32 29 33 46 53 49 47 51 51 47 53 52 53 47 51 58 62 76 95 93 103 107 104 104 103
27 26 24 23 22 18 18 18 21 21 19 25 28 31 54 43 43 34 29 34 37 46 49 50 46 50 48 46 52 59 53 46 49 58 62 58 54 55 99 99 94 94 102
27 26 24 22 22 22 20 21 21 22 21 22 24 35 37 42 35 26 30 36 39 48 53 46 41 44 43 49 57 61 56 57 65 70 74 81 85 101 95 88 85 91 84
19 18 18 20 23 25 23 25 23 25 32 35 35 38 41 33 37 37 35 36 41 51 51 47 39 43 43 50 51 57 61 62 62 66 72 88 71 94 83 77 74 74 76
14 15 24 37 53 68 31 28 27 35 45 33 35 38 39 40 38 40 39 37 43 45 44 42 43 40 43 47 53 61 68 71 56 64 72 81 86 84 82 74 67 63 69
10 13 22 45 59 84 46 27 32 40 46 42 37 46 45 41 38 39 40 42 44 45 42 46 44 36 41 50 57 66 68 63 48 54 77 76 67 77 77 65 57 47 62
14 23 26 27 36 44 24 25 34 31 35 36 39 43 39 35 36 40 42 45 46 47 50 44 33 35 45 52 58 63 63 59 51 43 39 69 51 67 70 59 50 39 39
19 20 25 27 17 23 33 30 26 28 29 30 34 32 29 32 35 39 43 45 44 45 45 39 32 42 51 59 58 60 60 60 56 50 40 35 73 56 60 54 46 36 31
16 32 36 31 25 22 28 31 32 31 31 29 29 29 33 33 37 40 41 36 34 33 33 35 38 46 53 56 56 57 56 58 60 56 48 42 51 56 58 50 47 43 36
38 45 32 30 24 23 26 24 29 35 35 36 32 32 32 35 40 49 45 33 29 26 32 34 40 44 49 49 50 53 56 59 61 56 57 54 18 58 58 51 47 45 40
39 32 31 27 24 26 25 27 29 33 34 35 32 31 33 35 38 41 37 36 33 35 34 35 38 41 44 46 49 52 56 58 60 61 61 60 55 32 53 49 49 48 43
36 32 28 32 34 32 30 34 36 36 34 31 30 31 32 32 33 37 38 34 31 32 32 34 37 40 43 46 49 51 53 55 57 59 59 62 63 61 49 49 52 51 50
39 36 36 33 31 32 34 33 32 33 30 27 28 30 30 32 32 33 33 31 29 31 32 36 39 39 41 45 51 51 50 51 54 56 57 57 57 57 58 47 45 44 48
42 35 34 29 29 32 29 29 28 27 24 23 25 28 30 30 29 28 29 29 28 30 33 37 38 37 39 46 49 49 45 47 50 52 53 54 55 53 51 52 49 39 40
37 38 35 37 34 32 28 31 28 23 20 21 25 27 28 31 30 28 28 29 29 29 30 33 36 37 40 43 44 43 41 44 47 48 50 51 52 52 51 50 48 48 42
37 37 33 31 30 28 29 30 22 18 20 20 22 22 25 27 28 26 26 30 26 24 27 31 33 35 37 38 39 40 41 43 45 45 47 49 50 50 51 49 48 45 46
31 31 32 31 29 27 26 23 23 26 21 19 20 18 17 19 22 28 26 26 21 21 25 29 31 33 34 35 36 38 39 42 44 44 44 46 47 47 48 48 48 47 45
31 30 26 23 24 26 24 23 29 29 25 22 19 14 13 15 19 23 21 18 21 19 20 24 28 30 32 34 36 37 39 42 43 43 43 43 44 44 44 44 45 45 45
34 37 34 25 22 19 20 24 30 28 26 22 19 12 9 8 11 16 17 18 19 15 15 18 22 26 29 32 36 39 39 41 43 42 41 41 41 41 41 41 42 42 42
Wind_Direction
195 193 200 199 79 37 24 14 11 13 15 10 7 4 2 1 358 357 355 355 353 349 348 345 342 343 340 338 337 335 333 333 327 324 324 319 312 308 304 301 289 278 273
210 207 218 226 234 304 356 7 9 12 8 3 1 0 0 359 360 1 0 359 353 349 346 343 337 334 334 333 332 328 327 329 327 321 322 322 316 311 305 300 294 281 273
221 221 225 238 235 253 313 349 1 1 2 2 1 1 1 360 1 3 2 356 352 350 346 340 337 333 330 330 329 326 324 326 327 325 320 321 319 316 306 301 295 284 274
214 214 214 228 233 267 307 332 346 353 356 357 357 358 357 357 358 356 354 352 353 349 344 341 336 331 326 326 326 324 323 324 325 323 321 320 322 318 310 298 292 285 274
214 217 217 222 230 257 292 310 328 338 343 348 351 352 352 352 353 352 354 356 352 349 345 340 337 334 327 327 326 324 323 323 325 323 321 320 320 316 308 298 287 281 274
220 226 238 244 246 251 270 286 314 324 334 341 344 346 349 350 352 352 350 350 350 348 342 339 340 338 338 335 330 327 325 325 323 324 324 325 319 310 307 297 286 280 268
222 224 231 236 252 242 256 289 310 318 329 329 336 340 343 347 348 345 342 344 346 346 344 339 338 335 334 337 335 336 332 332 331 330 329 329 320 310 303 294 284 274 263
232 230 232 229 244 244 259 285 308 322 322 322 332 336 341 340 345 342 338 338 342 345 346 349 347 339 338 338 333 335 334 337 336 334 334 331 314 291 297 292 276 264 256
230 229 233 234 233 252 273 287 302 314 320 335 337 344 331 334 340 341 341 338 338 342 346 344 346 340 342 345 338 333 338 339 339 335 335 337 330 293 291 286 272 260 247
225 231 227 228 246 262 266 284 299 313 316 331 326 330 331 333 341 346 339 338 339 339 341 344 345 344 345 342 338 336 341 342 340 336 333 336 339 330 299 288 274 263 251
234 228 230 262 248 258 272 297 307 322 335 337 337 334 339 341 340 337 344 340 339 339 342 343 346 344 346 341 346 344 342 344 343 342 338 334 348 312 302 293 282 263 246
292 305 320 318 304 280 279 303 316 324 327 339 338 335 338 342 340 341 345 346 345 346 349 351 348 350 347 348 349 342 341 342 356 349 345 345 351 312 308 303 295 265 247
301 301 332 332 303 302 301 318 316 322 325 331 333 335 336 340 344 347 347 347 346 347 349 346 344 350 350 346 346 339 343 353 5 4 345 354 4 314 315 309 309 291 244
321 324 332 327 305 321 350 342 328 330 332 335 337 338 342 344 346 345 344 344 346 347 343 346 350 348 344 343 342 341 345 356 8 14 18 359 11 321 326 320 316 304 264
325 339 335 330 318 319 327 338 340 341 343 344 346 348 347 345 347 345 342 342 344 346 347 355 359 345 342 333 340 341 344 353 8 18 24 332 333 325 327 328 323 315 302
329 332 334 319 318 325 332 339 351 354 358 358 359 357 355 354 350 347 343 345 347 352 354 355 353 346 338 336 338 339 345 351 1 14 24 32 319 323 329 328 334 334 320
305 316 317 305 311 320 331 336 339 347 358 359 358 358 360 356 353 348 350 359 4 6 356 358 350 349 341 343 343 340 341 342 350 8 16 25 19 329 336 333 334 337 338
328 329 328 319 327 330 334 335 340 340 340 343 352 355 356 354 354 355 3 5 3 0 356 354 352 352 348 346 342 339 337 338 342 340 356 11 28 321 332 336 339 340 336
333 336 335 329 326 328 332 332 334 337 340 343 347 347 349 351 354 354 358 360 3 1 5 358 354 353 349 347 345 341 342 341 339 335 329 338 345 17 328 334 344 347 353
328 328 331 331 329 328 333 337 337 337 340 342 341 343 347 348 347 349 353 360 5 4 1 352 348 350 348 345 340 341 343 344 340 337 331 333 335 339 3 330 335 338 346
317 327 326 329 325 328 337 339 342 342 345 344 346 348 348 348 350 352 353 355 357 353 350 349 350 356 354 345 341 342 345 344 345 344 340 337 338 338 337 348 356 331 337
326 320 325 320 321 325 331 330 335 335 341 340 339 342 350 348 348 348 348 351 352 353 354 356 353 353 351 349 350 351 350 345 341 340 341 341 343 346 343 344 346 353 341
325 326 329 327 325 327 327 327 333 333 332 332 338 342 346 349 351 351 351 346 352 2 1 360 360 357 357 356 357 356 352 348 344 344 344 346 349 349 351 349 349 348 352
334 332 333 334 332 331 334 336 334 330 331 328 331 338 347 352 355 352 351 354 2 3 360 360 1 1 1 360 357 355 352 347 343 346 348 348 351 353 356 359 358 357 357
342 342 344 346 347 340 338 335 330 329 333 335 336 338 341 346 349 352 2 10 1 8 8 5 4 3 1 359 356 352 345 342 342 342 344 346 348 350 351 355 358 0 1
336 337 339 335 337 341 339 334 329 329 329 330 333 336 343 355 0 360 3 3 2 11 21 16 13 11 7 3 358 352 347 340 337 339 342 342 344 345 349 351 354 356 359